Precipitable_Water
0.54 0.54 0.54 0.52 0.52 0.52 0.52 0.50 0.52 0.50 0.50 0.48 0.48 0.48 0.48 0.48 0.48 0.48 0.50 0.52 0.54 0.56 0.60 0.64 0.68 0.72 0.74 0.78 0.85 0.89 0.95 0.99 1.01 1.03 1.05 1.07 1.07 1.09 1.09 1.11 1.13 1.15 1.17 1.19 1.21 1.23 1.23 1.23 1.27 1.29 1.31 1.33 1.33 1.35 1.33 1.33 1.31 1.29 1.25 1.23 1.15 1.11 1.09 1.07 1.03 1.01 0.99 1.01 1.01
0.56 0.56 0.54 0.54 0.52 0.52 0.52 0.50 0.52 0.52 0.52 0.50 0.50 0.50 0.48 0.48 0.48 0.48 0.50 0.52 0.52 0.54 0.58 0.62 0.66 0.72 0.76 0.80 0.85 0.89 0.91 0.95 0.97 0.99 1.01 1.03 1.05 1.07 1.07 1.09 1.09 1.11 1.15 1.17 1.19 1.21 1.21 1.23 1.23 1.25 1.25 1.25 1.25 1.25 1.25 1.25 1.21 1.19 1.15 1.13 1.05 1.03 1.03 1.01 0.99 0.99 0.99 0.99 0.99
0.58 0.58 0.56 0.54 0.54 0.52 0.52 0.50 0.50 0.50 0.52 0.52 0.52 0.50 0.50 0.50 0.48 0.48 0.50 0.50 0.52 0.54 0.56 0.60 0.64 0.70 0.74 0.80 0.83 0.87 0.91 0.93 0.95 0.95 0.97 1.01 1.03 1.05 1.05 1.05 1.07 1.11 1.15 1.17 1.19 1.19 1.21 1.21 1.23 1.25 1.25 1.23 1.23 1.21 1.19 1.17 1.15 1.11 1.07 1.03 0.99 0.97 0.97 0.97 0.97 0.97 0.97 0.95 0.93
0.58 0.58 0.56 0.56 0.54 0.54 0.52 0.52 0.52 0.52 0.52 0.52 0.52 0.52 0.52 0.52 0.50 0.50 0.50 0.52 0.52 0.54 0.56 0.58 0.62 0.68 0.72 0.78 0.81 0.87 0.91 0.93 0.93 0.93 0.95 0.95 0.99 1.01 1.03 1.05 1.09 1.13 1.17 1.19 1.17 1.15 1.19 1.25 1.27 1.29 1.29 1.27 1.23 1.17 1.13 1.09 1.07 1.03 0.99 0.93 0.91 0.91 0.91 0.91 0.93 0.93 0.93 0.91 0.87
0.58 0.58 0.58 0.56 0.56 0.54 0.54 0.54 0.54 0.52 0.52 0.54 0.52 0.52 0.52 0.52 0.52 0.52 0.52 0.52 0.52 0.52 0.54 0.58 0.62 0.66 0.70 0.74 0.78 0.85 0.91 0.93 0.93 0.93 0.95 0.95 0.99 1.01 1.05 1.11 1.17 1.21 1.21 1.15 1.15 1.17 1.23 1.31 1.33 1.29 1.23 1.17 1.11 1.07 1.05 1.03 1.01 0.99 0.93 0.85 0.85 0.85 0.85 0.85 0.87 0.87 0.87 0.87 0.83
0.58 0.58 0.58 0.58 0.58 0.56 0.56 0.56 0.56 0.54 0.54 0.54 0.54 0.52 0.52 0.52 0.52 0.52 0.50 0.50 0.50 0.52 0.54 0.60 0.62 0.66 0.68 0.72 0.76 0.83 0.89 0.91 0.93 0.93 0.95 0.95 0.99 1.01 1.05 1.11 1.15 1.17 1.17 1.13 1.17 1.17 1.19 1.21 1.19 1.15 1.09 1.01 1.01 1.01 1.01 1.01 0.99 0.93 0.85 0.81 0.81 0.83 0.83 0.83 0.85 0.85 0.85 0.85 0.81
0.58 0.60 0.60 0.60 0.58 0.58 0.58 0.58 0.56 0.56 0.56 0.54 0.54 0.52 0.52 0.52 0.54 0.52 0.52 0.52 0.52 0.54 0.56 0.60 0.64 0.66 0.68 0.72 0.74 0.78 0.83 0.89 0.91 0.93 0.93 0.93 0.95 0.99 1.03 1.07 1.09 1.09 1.09 1.07 1.11 1.11 1.09 1.09 1.05 1.03 1.01 0.99 0.99 0.99 0.97 0.97 0.93 0.89 0.83 0.83 0.83 0.85 0.85 0.85 0.85 0.85 0.83 0.81 0.78
0.60 0.60 0.60 0.60 0.60 0.60 0.58 0.58 0.58 0.58 0.58 0.56 0.54 0.54 0.54 0.54 0.56 0.56 0.56 0.56 0.56 0.56 0.58 0.60 0.64 0.68 0.70 0.72 0.74 0.78 0.81 0.87 0.89 0.91 0.93 0.93 0.95 0.97 1.01 1.03 1.03 1.03 1.03 1.03 1.05 1.03 1.03 1.03 1.01 0.99 0.97 0.97 0.97 0.95 0.93 0.91 0.89 0.87 0.85 0.83 0.83 0.83 0.83 0.83 0.83 0.83 0.81 0.78 0.74
0.62 0.62 0.62 0.62 0.62 0.62 0.60 0.60 0.60 0.60 0.58 0.58 0.58 0.58 0.58 0.58 0.58 0.58 0.58 0.58 0.60 0.60 0.62 0.62 0.66 0.68 0.70 0.72 0.74 0.78 0.80 0.85 0.87 0.89 0.91 0.93 0.93 0.95 0.97 0.99 0.99 0.99 0.99 1.01 0.99 0.99 0.99 0.97 0.97 0.95 0.95 0.95 0.95 0.93 0.91 0.91 0.87 0.85 0.83 0.83 0.81 0.81 0.83 0.83 0.81 0.81 0.78 0.72 0.70
0.62 0.62 0.62 0.62 0.62 0.64 0.64 0.62 0.62 0.62 0.62 0.60 0.62 0.62 0.62 0.62 0.64 0.64 0.66 0.66 0.66 0.66 0.66 0.66 0.68 0.70 0.70 0.72 0.74 0.78 0.80 0.83 0.85 0.87 0.89 0.91 0.93 0.93 0.95 0.97 0.97 0.97 0.97 0.99 0.97 0.97 0.97 0.95 0.93 0.93 0.93 0.93 0.93 0.93 0.91 0.89 0.85 0.81 0.81 0.80 0.80 0.80 0.78 0.78 0.78 0.76 0.74 0.70 0.70
0.62 0.64 0.64 0.64 0.64 0.66 0.66 0.64 0.64 0.66 0.66 0.66 0.66 0.66 0.68 0.68 0.68 0.70 0.70 0.70 0.70 0.68 0.68 0.68 0.70 0.70 0.70 0.72 0.74 0.78 0.80 0.81 0.85 0.87 0.89 0.89 0.91 0.93 0.93 0.95 0.95 0.95 0.95 0.95 0.95 0.95 0.95 0.93 0.91 0.91 0.91 0.91 0.93 0.91 0.89 0.87 0.81 0.80 0.78 0.78 0.78 0.76 0.74 0.72 0.72 0.70 0.70 0.68 0.68
0.64 0.64 0.66 0.66 0.66 0.66 0.66 0.66 0.66 0.66 0.68 0.68 0.68 0.68 0.70 0.70 0.70 0.72 0.72 0.72 0.70 0.70 0.70 0.72 0.72 0.72 0.72 0.72 0.76 0.78 0.80 0.81 0.85 0.87 0.89 0.89 0.91 0.91 0.93 0.93 0.93 0.93 0.93 0.93 0.93 0.93 0.93 0.91 0.89 0.89 0.89 0.89 0.89 0.89 0.87 0.83 0.80 0.78 0.76 0.76 0.74 0.72 0.70 0.68 0.68 0.68 0.68 0.68 0.68
0.66 0.66 0.66 0.68 0.68 0.66 0.66 0.66 0.66 0.66 0.66 0.66 0.68 0.68 0.68 0.70 0.72 0.72 0.72 0.72 0.72 0.72 0.72 0.72 0.72 0.72 0.74 0.74 0.76 0.78 0.80 0.83 0.85 0.87 0.89 0.89 0.91 0.91 0.91 0.93 0.93 0.91 0.91 0.91 0.91 0.91 0.89 0.89 0.87 0.87 0.85 0.85 0.85 0.85 0.83 0.81 0.78 0.76 0.74 0.72 0.70 0.68 0.66 0.66 0.66 0.66 0.68 0.68 0.68
0.66 0.66 0.66 0.66 0.66 0.66 0.66 0.64 0.64 0.64 0.64 0.66 0.66 0.68 0.68 0.70 0.72 0.72 0.74 0.74 0.74 0.74 0.74 0.74 0.74 0.76 0.76 0.76 0.78 0.80 0.81 0.83 0.83 0.87 0.89 0.89 0.91 0.91 0.91 0.91 0.91 0.89 0.89 0.89 0.89 0.89 0.89 0.85 0.85 0.83 0.83 0.83 0.83 0.83 0.81 0.80 0.78 0.74 0.70 0.68 0.66 0.64 0.64 0.64 0.66 0.66 0.66 0.66 0.66
0.66 0.66 0.66 0.66 0.66 0.64 0.64 0.64 0.64 0.66 0.66 0.66 0.68 0.68 0.70 0.70 0.72 0.74 0.74 0.74 0.74 0.76 0.76 0.76 0.76 0.78 0.78 0.78 0.78 0.80 0.81 0.81 0.83 0.85 0.87 0.87 0.89 0.89 0.89 0.89 0.87 0.87 0.89 0.93 0.93 0.91 0.87 0.83 0.81 0.81 0.83 0.87 0.85 0.83 0.80 0.78 0.74 0.70 0.66 0.66 0.64 0.64 0.64 0.66 0.66 0.66 0.66 0.64 0.64
0.66 0.66 0.66 0.66 0.66 0.66 0.66 0.66 0.66 0.66 0.66 0.68 0.68 0.70 0.70 0.70 0.72 0.72 0.74 0.74 0.74 0.76 0.76 0.76 0.76 0.78 0.80 0.80 0.80 0.80 0.80 0.80 0.81 0.81 0.83 0.85 0.87 0.87 0.87 0.85 0.85 0.87 0.89 0.89 0.87 0.85 0.83 0.81 0.83 0.85 0.89 0.91 0.87 0.80 0.72 0.70 0.68 0.66 0.66 0.66 0.66 0.66 0.66 0.66 0.66 0.64 0.64 0.64 0.62
0.66 0.66 0.66 0.66 0.66 0.66 0.66 0.68 0.68 0.68 0.70 0.70 0.70 0.70 0.72 0.72 0.72 0.74 0.74 0.74 0.74 0.74 0.74 0.76 0.76 0.78 0.78 0.78 0.80 0.80 0.80 0.80 0.80 0.81 0.81 0.83 0.83 0.83 0.83 0.83 0.83 0.83 0.83 0.81 0.80 0.81 0.83 0.85 0.89 0.91 0.91 0.87 0.80 0.72 0.66 0.66 0.66 0.66 0.66 0.66 0.66 0.66 0.64 0.64 0.64 0.62 0.62 0.62 0.62
0.66 0.66 0.68 0.68 0.68 0.68 0.68 0.68 0.70 0.70 0.72 0.72 0.72 0.72 0.74 0.74 0.74 0.76 0.76 0.76 0.76 0.76 0.76 0.76 0.76 0.78 0.78 0.78 0.78 0.80 0.80 0.80 0.80 0.80 0.80 0.81 0.81 0.81 0.80 0.80 0.80 0.80 0.80 0.80 0.81 0.83 0.85 0.85 0.83 0.81 0.80 0.76 0.70 0.68 0.66 0.66 0.66 0.66 0.64 0.64 0.64 0.64 0.64 0.64 0.62 0.62 0.62 0.62 0.62
0.66 0.68 0.68 0.68 0.68 0.68 0.70 0.70 0.70 0.72 0.72 0.74 0.74 0.74 0.74 0.76 0.76 0.76 0.78 0.78 0.78 0.78 0.78 0.76 0.78 0.78 0.78 0.78 0.78 0.78 0.78 0.78 0.78 0.78 0.78 0.80 0.80 0.80 0.80 0.80 0.80 0.80 0.81 0.81 0.81 0.81 0.80 0.76 0.74 0.72 0.70 0.68 0.66 0.66 0.64 0.64 0.64 0.64 0.64 0.64 0.62 0.62 0.62 0.62 0.64 0.64 0.62 0.62 0.62
0.68 0.68 0.68 0.68 0.70 0.70 0.70 0.70 0.70 0.72 0.72 0.74 0.74 0.74 0.74 0.76 0.76 0.76 0.76 0.78 0.78 0.78 0.78 0.78 0.78 0.80 0.80 0.80 0.80 0.80 0.80 0.80 0.80 0.80 0.80 0.80 0.80 0.78 0.78 0.78 0.78 0.78 0.78 0.78 0.76 0.74 0.70 0.70 0.68 0.68 0.66 0.66 0.64 0.64 0.64 0.64 0.64 0.64 0.64 0.64 0.64 0.62 0.62 0.64 0.64 0.64 0.62 0.62 0.62
0.68 0.70 0.70 0.70 0.72 0.72 0.72 0.72 0.72 0.72 0.72 0.72 0.72 0.74 0.74 0.74 0.74 0.76 0.76 0.76 0.78 0.78 0.78 0.78 0.80 0.80 0.80 0.80 0.80 0.81 0.81 0.81 0.81 0.81 0.81 0.78 0.76 0.74 0.74 0.72 0.72 0.72 0.72 0.70 0.70 0.68 0.68 0.66 0.66 0.66 0.64 0.64 0.64 0.64 0.64 0.64 0.64 0.62 0.62 0.64 0.64 0.64 0.64 0.64 0.64 0.62 0.62 0.62 0.62
0.72 0.72 0.72 0.72 0.72 0.72 0.72 0.72 0.72 0.72 0.72 0.72 0.72 0.72 0.74 0.74 0.74 0.74 0.74 0.76 0.76 0.76 0.78 0.78 0.78 0.78 0.78 0.78 0.78 0.78 0.78 0.80 0.80 0.76 0.72 0.70 0.68 0.68 0.68 0.68 0.68 0.68 0.68 0.66 0.66 0.66 0.66 0.64 0.64 0.64 0.64 0.64 0.64 0.64 0.64 0.64 0.62 0.62 0.62 0.62 0.62 0.64 0.64 0.62 0.62 0.62 0.62 0.62 0.62
0.74 0.74 0.74 0.74 0.74 0.74 0.74 0.74 0.72 0.72 0.72 0.72 0.72 0.72 0.74 0.74 0.74 0.74 0.74 0.76 0.76 0.74 0.74 0.76 0.74 0.74 0.74 0.74 0.74 0.74 0.74 0.72 0.70 0.68 0.66 0.66 0.66 0.68 0.68 0.66 0.66 0.66 0.64 0.64 0.64 0.64 0.64 0.64 0.64 0.64 0.64 0.64 0.64 0.62 0.62 0.62 0.62 0.62 0.62 0.62 0.62 0.62 0.62 0.62 0.62 0.62 0.62 0.62 0.62
0.74 0.74 0.76 0.76 0.76 0.74 0.74 0.74 0.72 0.72 0.72 0.72 0.72 0.72 0.72 0.72 0.74 0.74 0.74 0.72 0.72 0.72 0.72 0.72 0.72 0.72 0.72 0.72 0.72 0.70 0.68 0.66 0.64 0.64 0.66 0.66 0.66 0.66 0.66 0.66 0.64 0.64 0.64 0.64 0.64 0.64 0.64 0.64 0.64 0.64 0.64 0.64 0.62 0.62 0.62 0.62 0.62 0.62 0.62 0.62 0.62 0.60 0.60 0.60 0.60 0.60 0.60 0.60 0.60
0.74 0.76 0.76 0.76 0.76 0.74 0.74 0.74 0.72 0.70 0.70 0.70 0.72 0.72 0.72 0.72 0.72 0.72 0.70 0.70 0.70 0.70 0.70 0.70 0.72 0.72 0.72 0.72 0.70 0.68 0.66 0.64 0.64 0.64 0.64 0.64 0.64 0.64 0.64 0.64 0.64 0.64 0.64 0.64 0.64 0.64 0.64 0.64 0.64 0.64 0.64 0.62 0.62 0.62 0.62 0.62 0.62 0.62 0.60 0.60 0.60 0.58 0.58 0.58 0.58 0.58 0.58 0.58 0.58
0.74 0.74 0.74 0.74 0.74 0.74 0.74 0.72 0.72 0.72 0.70 0.72 0.72 0.70 0.70 0.70 0.70 0.70 0.70 0.70 0.70 0.70 0.70 0.72 0.72 0.72 0.72 0.70 0.68 0.64 0.64 0.64 0.64 0.62 0.62 0.62 0.62 0.64 0.64 0.64 0.64 0.64 0.64 0.66 0.66 0.66 0.66 0.66 0.64 0.64 0.64 0.62 0.62 0.62 0.60 0.60 0.60 0.60 0.60 0.60 0.58 0.56 0.56 0.54 0.54 0.54 0.54 0.56 0.56
0.74 0.74 0.74 0.74 0.74 0.74 0.72 0.72 0.72 0.72 0.72 0.72 0.72 0.70 0.70 0.70 0.70 0.70 0.70 0.70 0.70 0.70 0.72 0.72 0.70 0.70 0.68 0.66 0.64 0.62 0.62 0.62 0.62 0.62 0.62 0.62 0.62 0.62 0.62 0.64 0.64 0.64 0.66 0.66 0.66 0.66 0.66 0.66 0.64 0.64 0.64 0.62 0.62 0.60 0.60 0.58 0.58 0.58 0.58 0.58 0.56 0.56 0.54 0.54 0.52 0.52 0.52 0.54 0.54
0.72 0.74 0.74 0.74 0.74 0.72 0.72 0.72 0.72 0.72 0.72 0.72 0.72 0.72 0.72 0.72 0.70 0.70 0.70 0.70 0.70 0.70 0.70 0.70 0.70 0.68 0.66 0.62 0.62 0.60 0.60 0.62 0.62 0.62 0.62 0.62 0.62 0.62 0.62 0.62 0.64 0.64 0.64 0.66 0.66 0.66 0.64 0.64 0.64 0.64 0.62 0.62 0.60 0.60 0.58 0.58 0.56 0.56 0.56 0.56 0.54 0.54 0.54 0.54 0.52 0.52 0.52 0.54 0.54
0.72 0.74 0.74 0.74 0.72 0.72 0.72 0.74 0.72 0.72 0.72 0.72 0.72 0.72 0.72 0.72 0.70 0.70 0.70 0.70 0.70 0.70 0.70 0.68 0.66 0.64 0.62 0.62 0.60 0.60 0.60 0.62 0.62 0.62 0.62 0.62 0.62 0.62 0.62 0.64 0.64 0.64 0.64 0.66 0.64 0.64 0.64 0.62 0.62 0.62 0.62 0.60 0.60 0.58 0.58 0.56 0.56 0.56 0.56 0.54 0.54 0.54 0.54 0.54 0.54 0.54 0.54 0.54 0.54
0.74 0.74 0.74 0.74 0.74 0.74 0.74 0.74 0.74 0.74 0.74 0.74 0.72 0.72 0.72 0.70 0.70 0.70 0.70 0.70 0.68 0.68 0.68 0.66 0.64 0.62 0.62 0.60 0.60 0.60 0.60 0.60 0.62 0.62 0.62 0.62 0.62 0.62 0.62 0.64 0.64 0.64 0.64 0.64 0.64 0.62 0.62 0.62 0.62 0.60 0.60 0.60 0.58 0.58 0.56 0.56 0.56 0.54 0.54 0.56 0.56 0.56 0.56 0.56 0.58 0.58 0.58 0.58 0.58
0.74 0.74 0.74 0.74 0.74 0.74 0.74 0.76 0.76 0.76 0.74 0.74 0.74 0.72 0.72 0.70 0.70 0.68 0.68 0.68 0.68 0.66 0.66 0.64 0.62 0.62 0.60 0.60 0.60 0.60 0.60 0.62 0.62 0.62 0.62 0.62 0.62 0.62 0.62 0.62 0.62 0.64 0.64 0.64 0.62 0.62 0.62 0.62 0.60 0.60 0.60 0.60 0.58 0.58 0.56 0.56 0.56 0.56 0.56 0.58 0.60 0.60 0.60 0.60 0.60 0.60 0.60 0.60 0.60
0.74 0.74 0.74 0.74 0.74 0.74 0.76 0.76 0.76 0.76 0.74 0.74 0.72 0.72 0.70 0.70 0.68 0.68 0.68 0.68 0.66 0.66 0.64 0.62 0.62 0.60 0.60 0.60 0.60 0.62 0.62 0.62 0.62 0.62 0.62 0.62 0.62 0.62 0.62 0.62 0.62 0.62 0.62 0.62 0.60 0.60 0.60 0.62 0.62 0.62 0.60 0.60 0.60 0.58 0.58 0.58 0.58 0.58 0.60 0.62 0.62 0.62 0.62 0.62 0.62 0.62 0.62 0.62 0.62
0.74 0.74 0.74 0.74 0.74 0.74 0.74 0.74 0.74 0.74 0.74 0.72 0.72 0.70 0.70 0.70 0.68 0.68 0.68 0.68 0.68 0.66 0.64 0.62 0.60 0.60 0.60 0.60 0.60 0.60 0.60 0.60 0.60 0.62 0.62 0.62 0.62 0.60 0.60 0.60 0.60 0.60 0.60 0.60 0.60 0.60 0.60 0.62 0.62 0.62 0.62 0.62 0.62 0.62 0.62 0.62 0.62 0.62 0.64 0.64 0.62 0.62 0.62 0.62 0.62 0.62 0.62 0.62 0.60
0.72 0.72 0.72 0.72 0.72 0.72 0.72 0.74 0.74 0.72 0.72 0.70 0.70 0.70 0.70 0.68 0.68 0.68 0.68 0.68 0.66 0.66 0.64 0.62 0.62 0.60 0.60 0.60 0.60 0.60 0.60 0.60 0.60 0.60 0.60 0.60 0.60 0.60 0.60 0.58 0.58 0.58 0.58 0.58 0.58 0.58 0.60 0.62 0.62 0.64 0.64 0.64 0.64 0.64 0.64 0.64 0.64 0.64 0.64 0.64 0.62 0.62 0.62 0.62 0.62 0.60 0.60 0.60 0.56
0.72 0.72 0.72 0.72 0.72 0.72 0.72 0.72 0.72 0.72 0.70 0.70 0.70 0.68 0.68 0.68 0.68 0.68 0.68 0.66 0.66 0.64 0.62 0.62 0.62 0.60 0.60 0.60 0.60 0.60 0.60 0.58 0.58 0.58 0.58 0.58 0.58 0.58 0.58 0.58 0.58 0.58 0.58 0.58 0.58 0.60 0.60 0.62 0.62 0.64 0.66 0.66 0.66 0.66 0.66 0.66 0.64 0.64 0.62 0.62 0.62 0.62 0.60 0.60 0.60 0.58 0.56 0.54 0.50
0.72 0.72 0.70 0.70 0.70 0.70 0.70 0.70 0.70 0.70 0.70 0.68 0.68 0.68 0.68 0.68 0.68 0.68 0.66 0.66 0.64 0.62 0.60 0.60 0.60 0.60 0.60 0.58 0.60 0.58 0.58 0.58 0.58 0.58 0.58 0.58 0.58 0.58 0.56 0.56 0.58 0.58 0.58 0.58 0.60 0.60 0.62 0.62 0.64 0.64 0.66 0.66 0.66 0.66 0.66 0.66 0.64 0.62 0.62 0.60 0.58 0.58 0.56 0.56 0.54 0.54 0.50 0.44 0.42
0.70 0.70 0.70 0.68 0.68 0.68 0.68 0.70 0.68 0.68 0.68 0.68 0.68 0.68 0.68 0.66 0.66 0.66 0.66 0.64 0.62 0.62 0.60 0.58 0.58 0.58 0.58 0.58 0.58 0.58 0.58 0.58 0.58 0.58 0.58 0.58 0.58 0.58 0.56 0.56 0.58 0.58 0.60 0.60 0.62 0.62 0.64 0.64 0.66 0.66 0.66 0.66 0.66 0.66 0.64 0.64 0.60 0.58 0.58 0.56 0.54 0.52 0.50 0.50 0.48 0.46 0.42 0.34 0.32
0.70 0.70 0.70 0.68 0.68 0.68 0.68 0.68 0.68 0.68 0.68 0.68 0.68 0.68 0.66 0.66 0.66 0.64 0.64 0.64 0.62 0.60 0.58 0.56 0.56 0.56 0.58 0.58 0.58 0.58 0.58 0.58 0.58 0.58 0.58 0.58 0.58 0.58 0.56 0.58 0.60 0.62 0.62 0.64 0.66 0.66 0.66 0.66 0.66 0.68 0.66 0.66 0.66 0.66 0.64 0.58 0.56 0.52 0.50 0.48 0.46 0.44 0.42 0.40 0.38 0.36 0.34 0.24 0.24
0.70 0.70 0.68 0.68 0.68 0.68 0.68 0.66 0.66 0.66 0.66 0.66 0.66 0.66 0.66 0.66 0.64 0.64 0.62 0.62 0.60 0.58 0.56 0.56 0.56 0.56 0.58 0.58 0.58 0.58 0.58 0.60 0.60 0.60 0.58 0.58 0.58 0.58 0.58 0.60 0.62 0.64 0.66 0.68 0.68 0.68 0.68 0.68 0.68 0.68 0.66 0.66 0.64 0.64 0.60 0.54 0.50 0.46 0.42 0.38 0.36 0.34 0.32 0.30 0.28 0.26 0.22 0.18 0.18
0.70 0.68 0.68 0.68 0.68 0.68 0.66 0.66 0.66 0.66 0.66 0.66 0.66 0.66 0.66 0.64 0.64 0.62 0.62 0.60 0.58 0.58 0.56 0.56 0.56 0.58 0.58 0.58 0.58 0.58 0.60 0.60 0.60 0.60 0.60 0.60 0.60 0.62 0.62 0.64 0.66 0.68 0.68 0.70 0.68 0.68 0.68 0.68 0.66 0.66 0.64 0.62 0.60 0.56 0.50 0.42 0.40 0.36 0.32 0.30 0.28 0.26 0.24 0.22 0.22 0.18 0.17 0.17 0.17
0.68 0.68 0.68 0.68 0.68 0.68 0.66 0.66 0.66 0.66 0.66 0.66 0.66 0.66 0.66 0.64 0.64 0.62 0.60 0.58 0.58 0.56 0.56 0.56 0.56 0.58 0.58 0.58 0.58 0.60 0.60 0.60 0.62 0.62 0.62 0.64 0.64 0.66 0.66 0.66 0.66 0.66 0.68 0.68 0.66 0.66 0.66 0.64 0.62 0.60 0.58 0.56 0.52 0.42 0.34 0.30 0.28 0.26 0.24 0.22 0.20 0.20 0.18 0.18 0.17 0.17 0.15 0.15 0.15
Wind_Speed
26 26 26 26 26 27 27 27 27 28 28 28 29 29 29 29 30 30 30 30 30 30 30 29 29 29 29 29 29 29 29 29 29 29 29 29 29 29 28 28 29 29 29 29 29 29 28 28 26 25 24 23 22 22 23 24 26 28 28 28 28 28 28 29 30 31 32 32 33
25 25 26 26 26 26 26 26 27 27 27 27 28 28 28 29 29 29 29 29 29 29 29 29 29 28 28 28 28 28 28 28 28 28 28 28 28 27 27 28 28 28 28 28 28 28 28 27 26 26 25 24 24 24 26 27 27 28 28 28 28 28 29 30 30 31 32 32 32
25 25 25 26 26 26 26 26 26 26 27 27 27 27 28 28 28 29 29 29 29 29 29 29 28 28 28 28 28 28 28 27 27 27 27 27 27 27 27 27 27 28 27 27 27 27 27 26 26 25 25 24 25 25 26 27 27 27 27 28 28 29 29 30 30 30 31 31 32
25 25 26 26 26 26 26 26 27 27 27 27 27 27 28 28 28 28 29 29 29 29 29 29 29 28 28 27 27 27 27 27 26 26 26 26 26 26 26 27 27 27 26 26 26 26 25 25 24 24 24 24 24 25 26 26 26 27 27 28 28 29 29 29 30 30 30 31 32
26 26 26 26 27 27 27 27 27 27 28 27 27 28 28 28 28 28 29 29 29 29 29 29 29 28 28 27 27 27 26 26 26 26 26 26 26 26 26 26 26 26 25 25 25 24 24 23 23 23 24 24 25 26 26 26 26 26 27 28 28 29 29 29 30 30 31 32 33
26 26 26 27 27 27 27 27 27 28 28 28 28 28 28 28 28 28 29 29 29 29 29 29 29 28 28 27 26 26 26 26 26 26 25 25 26 26 26 25 25 25 25 25 24 23 23 23 24 25 25 26 26 26 26 26 26 27 28 28 28 28 29 29 30 31 32 33 34
26 26 27 27 27 27 27 27 28 28 28 28 28 28 28 28 28 28 28 29 29 29 29 28 28 28 27 27 26 26 26 26 25 25 25 25 25 25 25 24 24 24 24 24 24 23 24 24 25 25 25 26 26 26 26 26 27 27 27 28 28 29 29 30 31 31 32 33 34
26 27 27 27 27 27 27 27 27 27 28 28 28 28 28 28 28 28 28 28 28 28 28 28 27 27 27 26 26 26 25 25 25 25 25 25 25 24 24 24 24 24 24 24 24 24 24 24 24 25 25 26 26 26 27 27 27 27 27 27 28 29 29 30 31 31 32 32 33
26 26 27 27 27 27 27 27 27 27 27 27 27 27 27 27 27 27 27 27 27 27 27 27 27 26 26 26 25 25 25 25 25 25 25 25 24 24 24 24 24 24 24 24 24 24 24 24 24 25 25 26 26 26 27 27 27 27 27 27 28 28 29 29 30 30 31 31 31
26 26 26 26 26 26 26 26 26 26 26 26 26 26 26 26 26 26 26 26 26 26 26 26 26 26 25 25 25 25 25 25 24 24 24 24 24 23 23 23 23 24 24 24 24 24 24 24 25 25 26 26 26 26 26 26 26 26 27 27 27 28 28 29 29 29 30 30 30
25 25 25 25 25 25 25 25 25 25 25 25 25 25 25 25 25 25 25 25 25 24 24 25 25 25 25 25 25 25 24 24 24 24 23 23 23 23 23 23 23 23 24 24 24 24 24 25 25 26 26 26 26 26 26 26 26 26 26 27 27 27 28 28 28 29 29 29 30
25 24 24 24 24 24 24 24 24 23 23 23 23 23 23 24 24 24 24 23 23 23 23 23 23 24 24 24 24 24 24 23 23 23 22 22 22 23 23 23 23 24 24 24 24 25 25 25 26 26 25 25 25 25 25 25 25 25 26 26 26 27 27 27 28 28 29 29 29
23 23 23 22 22 22 22 22 22 22 22 22 22 22 22 22 22 22 22 22 22 22 22 22 22 22 23 23 23 23 22 22 22 22 22 22 22 23 23 23 24 24 24 24 25 25 25 25 25 25 24 24 24 24 24 24 25 25 25 25 26 26 26 27 27 27 28 28 28
21 21 21 21 21 20 20 20 21 21 21 21 21 21 21 21 21 21 21 21 21 21 21 21 21 21 21 21 21 21 21 21 21 21 22 22 23 23 23 23 24 24 24 25 25 25 24 24 24 24 23 23 23 23 23 24 24 24 24 25 25 25 25 26 26 26 26 27 27
19 19 19 19 19 19 19 19 20 20 20 20 20 20 20 20 20 20 20 20 20 20 20 20 20 20 20 20 20 20 20 20 21 21 22 22 22 23 23 23 23 23 24 24 23 23 23 23 23 23 22 22 22 22 23 23 23 23 23 23 24 24 24 25 25 25 25 25 25
18 18 18 18 18 18 18 18 19 19 19 19 19 19 19 19 19 19 19 19 19 19 19 19 18 19 19 19 19 19 20 20 21 21 21 21 22 22 22 22 22 23 23 22 22 22 22 22 22 21 21 21 22 22 22 22 22 22 22 22 23 23 23 24 24 24 24 24 24
17 17 17 17 17 17 17 18 18 18 18 18 18 18 18 18 18 18 18 18 18 18 18 18 18 18 18 19 19 19 20 20 20 20 20 21 21 21 21 21 22 22 22 22 22 22 21 21 21 20 21 21 21 21 21 21 21 21 21 22 22 22 22 23 23 23 23 23 24
16 16 16 17 16 16 16 17 17 17 17 17 17 17 17 17 17 17 17 17 17 17 17 17 18 18 18 18 19 19 19 19 19 20 20 20 20 20 20 21 21 21 21 21 21 20 20 20 20 20 20 20 20 20 20 20 20 20 21 21 21 21 22 22 22 22 22 23 23
15 16 16 16 16 16 16 16 16 16 16 16 16 17 17 17 17 17 17 17 17 17 17 17 18 18 18 18 18 19 19 19 19 19 19 19 19 20 20 20 20 20 20 20 20 20 19 19 19 19 19 19 19 19 19 19 20 20 20 20 21 21 21 21 21 21 22 22 22
15 15 15 15 15 15 16 16 16 16 16 16 16 16 17 17 17 17 17 17 17 17 17 18 18 18 18 18 18 18 18 18 18 18 18 19 19 19 19 19 19 20 19 19 19 19 18 18 18 17 17 18 18 18 18 19 19 19 19 20 20 20 20 20 20 20 21 21 21
15 15 15 15 15 16 16 16 16 16 16 16 16 16 16 17 17 17 17 17 18 18 18 18 18 18 18 18 18 18 18 18 18 18 18 18 18 19 19 19 19 19 19 18 17 17 16 16 16 16 17 17 17 18 18 18 18 19 19 19 19 19 19 19 19 20 20 20 20
15 15 15 16 16 16 16 16 16 16 16 16 16 16 16 16 17 17 17 17 18 18 18 18 18 18 18 18 18 18 18 18 18 18 18 18 18 18 18 18 18 17 17 16 15 15 15 15 16 16 16 17 17 17 17 18 18 18 18 18 18 18 18 18 19 19 19 19 19
15 15 15 15 15 15 15 15 15 16 16 16 16 16 16 16 16 17 17 17 17 17 17 18 17 17 17 17 17 17 17 17 17 17 17 17 17 17 17 16 16 15 15 14 14 15 15 15 15 16 16 16 17 17 17 17 17 17 17 17 17 17 18 18 18 18 18 18 17
14 14 14 14 14 14 14 14 15 15 15 15 16 16 16 16 16 16 16 17 17 17 17 17 16 16 16 16 16 16 16 16 16 16 16 15 15 15 15 15 14 14 14 14 14 15 15 15 15 16 16 16 16 16 17 17 17 17 17 17 17 17 17 17 17 17 17 17 16
13 13 13 13 13 13 13 14 14 14 14 15 15 15 15 15 16 16 16 16 16 15 15 15 15 15 15 15 15 15 15 15 14 14 14 14 14 14 14 14 14 14 14 14 14 14 14 15 15 15 16 16 16 16 16 16 16 16 17 17 16 16 16 16 16 16 16 16 16
13 13 13 13 13 13 13 14 14 14 14 14 14 14 15 15 15 15 15 14 14 14 14 14 14 14 14 14 14 14 14 14 13 13 13 13 13 14 14 14 13 14 14 13 13 13 14 14 14 15 15 15 15 16 16 16 16 16 16 16 16 16 16 16 16 16 16 16 16
13 13 14 14 13 13 14 14 14 14 14 14 14 14 14 14 14 14 13 13 13 13 13 13 13 13 13 13 13 13 13 13 13 13 13 13 13 13 13 13 13 13 13 13 13 13 13 13 14 14 14 15 15 15 15 15 15 16 16 15 16 16 16 15 15 15 15 15 15
14 14 14 14 13 14 14 14 14 14 14 14 14 13 13 13 13 13 13 13 13 13 13 13 13 13 13 12 12 12 12 12 12 12 13 13 13 13 13 13 13 13 13 12 12 12 13 13 13 13 13 14 14 15 15 15 15 15 15 15 15 15 15 15 15 15 15 15 15
14 14 14 13 13 13 14 14 14 14 13 13 13 13 12 12 12 12 12 12 12 12 12 12 12 12 12 12 12 11 12 12 12 12 12 13 13 12 12 12 12 12 12 12 12 12 12 12 12 12 12 13 14 14 14 14 15 15 15 15 15 15 15 15 15 15 15 15 14
13 13 13 13 13 13 14 14 13 13 13 13 12 12 12 12 12 12 12 12 12 12 12 12 12 12 12 12 12 12 12 12 12 12 12 12 12 12 12 12 12 12 11 11 11 11 11 12 12 12 12 13 13 14 14 14 14 14 15 15 15 15 15 15 15 14 14 14 14
13 13 13 13 13 13 13 13 13 13 13 12 12 12 12 12 12 12 12 12 12 12 12 12 12 12 12 12 12 12 12 12 12 12 12 11 11 11 11 11 11 11 11 11 11 11 11 11 12 12 12 13 13 14 14 14 14 14 14 14 14 14 14 14 14 13 13 13 13
13 13 14 14 13 13 13 13 13 13 12 12 12 12 12 12 12 12 12 12 12 12 12 12 12 12 12 12 11 11 11 11 11 11 11 11 11 11 11 11 11 11 11 11 11 11 11 11 12 12 12 13 13 13 13 13 13 13 13 13 13 13 13 13 12 12 12 12 12
13 13 13 13 13 13 13 13 13 13 13 12 12 12 12 12 12 12 12 12 12 12 12 12 12 11 11 11 11 11 11 11 11 11 11 11 11 11 11 11 11 11 11 11 11 11 11 12 12 12 12 12 13 13 13 13 13 13 13 13 12 12 12 12 11 11 11 12 12
13 13 13 13 13 13 13 13 13 13 13 13 12 12 12 13 13 13 13 13 12 12 12 12 11 11 11 11 11 11 11 11 11 11 11 11 11 11 11 11 11 11 11 11 11 11 11 12 12 12 12 12 12 13 13 13 13 12 12 11 11 11 11 11 11 11 11 12 12
13 13 13 13 13 13 13 13 13 13 13 13 13 13 13 13 13 13 12 12 12 12 11 11 11 11 11 11 11 11 11 11 11 11 11 11 11 11 11 11 11 11 11 11 11 11 11 12 12 11 12 12 12 13 13 12 12 11 11 10 10 10 10 11 11 11 12 12 12
12 12 12 12 13 13 13 13 13 13 13 13 12 12 12 12 12 12 12 12 11 11 11 11 11 11 11 11 11 11 11 11 11 11 11 11 11 11 11 11 11 11 11 11 11 12 12 12 12 12 12 12 13 13 12 11 11 10 10 9 10 10 10 11 11 12 12 13 13
12 12 12 12 13 13 13 13 13 13 12 12 12 12 12 12 12 12 12 12 11 11 11 11 11 10 10 10 11 11 11 11 11 11 11 11 11 12 12 12 12 12 12 12 12 12 12 12 12 12 12 12 12 12 11 10 10 9 9 9 9 10 11 11 12 13 13 14 14
12 12 12 12 12 12 12 12 12 12 12 12 12 12 12 12 12 12 12 11 11 11 11 11 10 10 10 11 11 11 11 11 11 11 11 11 12 12 12 12 12 12 12 12 12 12 12 12 12 12 12 12 11 10 10 9 9 9 9 9 10 11 11 12 13 13 14 14 14
11 11 12 12 12 12 12 12 12 12 12 11 11 12 11 11 11 11 11 11 11 11 11 10 10 10 11 11 11 11 11 11 11 11 11 11 12 12 12 12 13 13 13 12 12 12 12 12 11 11 11 11 10 9 9 9 9 9 9 10 10 11 12 12 13 13 14 14 14
10 11 11 11 11 11 11 11 11 11 11 11 11 11 11 11 11 11 11 11 11 11 11 10 10 10 11 11 11 11 11 11 11 11 11 12 12 12 12 12 12 12 12 11 11 11 11 10 10 10 9 9 9 9 9 9 9 9 10 10 11 12 12 13 13 14 14 14 14
9 10 10 10 10 10 11 10 10 10 10 10 10 10 10 10 10 10 10 10 10 10 10 10 10 10 10 11 11 11 11 11 11 11 12 12 12 12 12 11 11 11 10 10 9 9 9 8 8 8 8 8 8 8 9 9 9 10 10 11 12 12 13 13 14 14 14 14 14
Wind_Direction
258 258 259 259 259 260 260 260 260 261 261 261 262 262 263 263 264 265 265 266 267 267 268 269 269 270 270 271 271 271 271 271 270 270 270 269 269 269 269 269 269 270 270 271 272 273 274 275 276 276 277 277 275 272 270 271 274 278 281 284 284 284 283 284 285 285 284 285 285
259 259 259 259 260 260 260 260 260 261 261 261 261 262 262 263 264 264 265 265 266 267 268 269 270 270 271 271 271 271 270 270 270 269 269 269 269 269 269 269 269 269 270 271 272 273 274 274 273 273 273 274 274 273 274 275 277 279 282 283 284 284 285 285 285 286 287 288 288
259 259 259 260 260 260 260 260 261 261 261 261 261 262 262 263 263 264 264 265 266 266 267 268 269 270 270 270 270 270 270 269 269 269 269 269 269 269 269 269 269 269 270 271 273 274 274 274 272 272 272 272 273 274 275 277 278 280 282 284 285 286 286 287 287 288 289 290 290
259 259 259 259 260 260 260 260 260 261 261 261 262 262 262 263 264 264 264 265 265 266 267 267 268 269 269 269 269 269 269 269 268 268 268 268 268 268 268 269 269 270 271 272 274 275 275 274 272 271 271 272 274 276 277 278 280 282 284 285 286 287 287 288 289 290 291 292 292
258 258 258 259 259 259 260 260 260 261 261 262 262 263 263 264 264 265 265 266 266 266 266 267 267 267 268 268 268 268 268 268 268 268 268 268 268 269 269 269 270 271 272 273 274 275 275 274 272 272 273 275 277 278 279 280 282 284 285 287 287 287 288 288 290 291 292 293 294
258 258 258 258 259 259 260 260 261 261 262 262 263 264 265 265 266 266 266 266 266 266 266 266 266 266 266 267 267 267 267 267 267 267 268 268 269 270 271 271 271 272 272 273 274 274 273 272 272 272 274 277 278 279 280 282 284 285 287 288 288 288 288 289 290 292 293 294 294
258 258 259 259 259 260 260 261 261 262 263 263 264 265 266 266 267 267 267 267 267 266 266 265 265 265 265 266 266 266 266 266 266 267 267 268 269 270 271 271 271 271 272 273 274 273 271 270 271 273 275 276 277 278 280 282 284 286 287 288 288 288 289 290 291 293 294 294 294
259 259 259 260 260 260 261 262 262 263 263 264 265 265 266 266 267 267 267 267 267 266 266 265 265 264 264 265 265 265 265 266 266 267 267 268 268 269 269 269 270 270 271 272 272 272 271 271 272 273 275 276 277 278 280 282 284 286 287 288 288 289 290 291 292 293 294 294 295
260 260 260 261 261 261 262 262 263 263 264 264 265 265 265 266 266 267 267 267 266 266 266 265 264 264 264 264 264 265 265 265 266 266 267 267 267 267 268 268 269 269 270 271 271 271 271 271 273 274 275 276 277 278 281 283 285 287 287 288 288 289 290 292 293 294 294 295 296
261 261 262 262 262 262 262 263 263 264 264 264 265 265 265 265 266 266 266 266 266 266 265 264 264 263 263 263 264 264 264 264 265 265 265 265 266 266 267 267 268 268 269 269 270 270 271 272 274 276 276 276 277 279 282 284 286 287 287 287 289 290 292 293 294 295 296 297 297
262 262 263 263 263 263 263 264 264 264 264 264 265 265 265 265 265 265 265 265 265 265 264 264 263 262 262 262 263 263 263 263 263 263 263 264 265 265 266 266 267 267 268 269 270 271 272 274 276 276 276 277 278 280 283 284 285 286 287 288 290 292 294 295 296 297 297 298 299
263 263 263 263 263 264 264 264 264 264 264 265 265 265 265 265 265 264 264 264 264 264 264 263 263 262 262 262 261 261 261 262 262 262 263 263 264 265 265 266 267 268 269 270 271 272 274 275 276 276 276 277 279 281 282 284 285 286 288 290 292 294 295 296 297 298 299 300 300
262 263 263 263 263 263 263 263 263 264 264 265 265 265 264 264 264 264 264 264 264 263 263 263 263 263 262 261 261 260 260 261 261 262 263 263 264 265 266 267 268 269 270 271 272 273 275 276 276 276 276 277 279 280 282 283 285 287 290 292 294 295 296 297 298 299 300 301 301
262 262 262 262 262 262 262 263 263 264 264 264 264 264 264 264 264 264 264 264 264 264 264 264 263 263 262 261 260 260 260 260 261 262 263 264 265 266 267 268 269 270 271 271 272 273 274 275 275 275 276 278 280 281 283 285 288 290 292 294 295 296 297 298 299 299 300 301 302
260 261 261 261 262 262 262 262 263 263 263 263 263 263 263 264 264 264 264 264 264 264 263 263 263 263 262 261 260 260 261 261 262 263 264 265 265 266 267 268 269 270 270 271 272 273 274 274 275 276 277 279 281 284 286 288 291 292 293 295 295 296 297 298 299 299 300 301 302
259 260 260 261 261 262 262 262 262 262 262 262 263 263 263 263 264 264 264 264 264 264 264 263 263 263 262 262 261 261 262 262 263 264 264 265 265 266 267 268 268 269 270 272 273 274 274 275 276 277 280 282 284 287 289 291 292 293 294 295 295 296 297 298 298 299 299 300 301
258 259 260 260 261 261 261 261 261 261 262 262 263 264 264 264 264 264 265 264 264 264 264 263 263 262 262 261 261 261 262 262 263 263 264 264 265 266 266 267 268 269 270 271 272 273 274 276 278 280 282 284 286 288 290 291 292 293 293 294 295 296 296 297 297 298 299 300 301
258 259 259 260 260 261 261 261 261 261 262 263 264 264 264 264 264 264 264 264 263 263 263 262 262 261 260 260 261 261 261 262 262 262 263 263 264 265 265 266 267 269 270 271 272 274 276 278 280 282 283 285 286 288 289 290 291 292 293 294 294 295 295 296 297 298 299 300 302
258 258 259 260 260 260 261 261 262 262 263 264 264 264 263 263 263 262 262 261 261 260 260 260 259 259 259 259 259 260 260 260 261 261 261 262 263 264 265 266 268 269 271 273 275 276 278 280 281 282 283 284 285 287 288 289 290 291 292 293 294 294 295 296 298 299 301 302 304
258 259 259 260 260 260 261 261 262 262 262 262 262 262 262 261 261 260 259 259 259 258 258 258 257 258 258 258 258 259 259 260 260 261 261 262 263 264 266 267 270 272 274 275 276 278 279 279 280 281 282 283 285 286 288 289 290 291 291 292 293 294 296 297 299 301 303 305 306
257 258 258 259 259 260 260 261 261 261 261 261 261 261 260 260 260 259 259 259 259 258 259 259 259 260 260 261 261 261 262 262 263 263 264 264 265 267 268 270 271 273 274 275 276 277 277 278 279 280 282 283 285 286 287 288 289 290 291 292 293 295 297 299 301 303 305 307 308
257 257 258 258 259 259 260 260 260 260 259 259 260 261 261 261 261 261 260 260 260 261 261 262 263 263 263 264 263 263 264 264 264 264 265 266 267 268 270 271 272 273 273 274 274 275 276 277 279 280 282 283 284 285 286 287 288 289 290 292 294 296 298 301 303 305 307 309 310
256 257 258 259 260 260 260 260 260 260 259 259 260 261 261 261 262 262 262 262 262 263 264 264 265 265 265 265 264 264 263 263 263 264 265 266 267 268 269 270 271 272 273 274 275 275 276 278 279 280 281 282 283 284 286 287 288 289 290 293 295 298 300 302 304 307 309 310 312
256 257 258 260 260 260 260 260 261 261 261 261 261 262 262 262 262 263 263 264 264 264 264 264 265 265 265 264 263 263 262 262 262 263 264 265 266 267 268 269 271 272 274 275 276 276 277 277 278 280 281 282 283 284 286 287 288 290 292 294 297 299 302 304 306 308 310 311 312
255 256 257 258 258 259 259 260 262 263 264 264 264 264 264 264 264 264 264 265 265 264 264 264 263 263 263 262 261 261 261 261 262 263 264 265 266 267 269 270 272 273 274 275 275 276 277 278 279 280 281 282 284 285 286 288 290 292 294 297 299 301 303 305 307 308 310 311 312
254 254 255 256 256 257 259 260 262 264 266 267 267 267 267 266 265 265 264 264 264 263 263 263 262 262 261 261 260 260 261 262 262 264 265 266 267 268 269 271 272 273 274 274 274 275 276 277 279 280 282 283 284 286 287 289 291 294 296 298 300 302 304 305 306 308 309 310 311
252 253 253 254 255 257 259 261 263 265 267 268 268 268 267 266 264 263 262 261 261 261 261 261 261 261 260 260 261 261 262 263 264 265 266 266 267 268 270 271 273 273 274 274 274 275 276 277 279 281 282 284 285 286 288 290 293 295 297 299 301 302 303 304 305 306 307 308 309
250 252 253 254 256 258 260 262 264 266 267 267 267 266 264 263 261 260 259 258 258 258 258 259 259 259 259 260 261 262 262 263 264 265 266 267 268 269 271 272 273 273 273 273 274 275 277 278 279 280 282 284 286 287 289 291 293 295 297 298 299 300 301 302 303 303 304 305 306
249 251 252 254 256 258 261 263 264 265 266 265 264 263 261 259 258 256 256 255 255 255 256 256 256 257 258 259 259 260 261 262 263 265 266 268 269 270 271 272 273 273 274 274 275 276 276 277 278 279 281 283 286 288 290 292 294 295 296 297 298 298 299 300 301 301 302 303 303
249 250 252 254 256 258 260 262 263 263 263 262 261 259 258 257 256 255 254 254 254 254 254 255 255 256 256 256 257 259 260 262 264 266 267 268 269 270 271 272 273 274 274 275 275 274 274 275 276 279 281 285 288 290 292 293 294 295 296 296 297 297 298 299 299 300 301 301 302
249 250 252 253 255 257 258 260 260 260 260 259 259 258 257 256 255 254 254 254 254 254 254 255 255 255 255 256 258 260 262 264 266 267 268 269 269 270 271 272 273 274 274 274 273 273 273 274 277 280 283 287 290 292 293 295 295 296 296 296 297 297 298 298 299 299 300 301 303
249 250 251 252 254 256 257 258 259 259 259 259 258 257 256 256 255 255 255 255 255 255 255 255 255 255 256 257 259 262 264 265 266 267 268 268 269 270 272 273 273 273 273 272 272 272 274 276 279 282 286 289 292 293 294 295 296 296 296 297 297 297 297 298 298 300 301 302 304
249 250 251 251 253 255 256 257 258 259 259 259 258 257 256 255 256 256 257 257 257 257 257 257 256 257 258 259 261 262 264 265 266 266 267 268 269 270 272 273 273 273 273 272 273 274 275 278 281 284 287 290 292 293 295 295 296 295 295 295 296 296 297 298 299 300 301 303 305
249 250 250 251 253 255 256 258 259 259 259 258 257 257 256 256 256 257 258 259 260 260 260 259 259 258 259 260 260 261 262 263 264 265 266 268 269 271 272 273 273 273 273 273 273 275 276 278 281 284 287 289 291 293 294 294 294 293 293 294 295 295 296 298 299 301 303 305 306
250 251 252 254 255 257 258 259 260 260 259 258 257 257 257 257 258 259 260 261 261 261 261 260 260 259 259 260 260 260 261 261 263 265 267 269 271 272 273 273 274 273 273 273 273 274 276 278 280 283 286 289 290 291 291 291 291 291 291 292 293 295 297 299 301 303 305 307 308
253 253 255 257 259 260 261 261 261 261 260 259 258 258 258 259 260 261 262 262 262 262 261 260 260 260 260 260 260 260 260 261 263 266 269 272 273 274 274 274 274 273 272 272 272 273 275 276 279 282 285 287 288 288 288 288 288 289 290 292 294 296 299 302 303 305 306 308 308
255 257 258 260 261 261 261 261 261 261 261 260 259 259 259 260 261 262 263 263 262 261 261 261 260 260 260 260 260 260 261 263 265 268 270 273 274 274 274 274 273 272 272 271 271 272 274 276 278 281 283 285 285 285 284 284 286 288 290 293 296 299 302 303 305 306 307 307 307
257 259 260 261 260 260 260 260 261 261 261 260 260 260 261 261 262 263 263 263 262 261 261 261 260 260 259 259 260 261 263 266 268 270 271 272 273 273 272 272 272 272 271 270 271 272 273 275 278 280 282 282 282 282 282 284 286 289 292 295 299 301 303 304 305 306 306 306 307
258 260 261 261 260 260 260 260 261 261 261 261 261 262 263 263 263 263 263 263 262 261 261 261 260 259 259 259 260 262 265 267 269 271 271 271 271 271 271 271 271 271 271 270 270 271 273 275 277 278 279 281 281 282 283 285 288 292 295 298 301 302 303 304 305 305 306 306 308
259 260 261 261 261 261 261 261 262 262 262 262 263 264 264 264 264 263 263 263 263 262 261 260 260 259 259 260 261 263 266 268 269 270 270 269 269 269 270 270 271 271 271 270 270 271 273 274 275 276 278 280 281 283 285 288 291 295 298 300 302 303 303 304 304 305 306 307 308
258 260 261 262 262 262 262 263 263 264 264 265 265 265 265 265 264 264 264 263 263 262 261 260 259 259 259 260 261 263 265 267 268 268 268 268 268 268 269 270 271 271 271 271 270 270 271 272 273 275 277 280 282 284 287 290 294 296 299 300 301 302 303 304 304 305 307 308 308